Time,TemperatureF,DewpointF,PressureIn,WindDirection,WindDirectionDegrees,WindSpeedMPH,WindSpeedGustMPH,Humidity,HourlyPrecipIn,Conditions,Clouds,dailyrainin,SoftwareType,DateUTC
2013-08-10 00:01:00,66.5,65.0,29.98,NW,324,0.0,0.0,95,0.00,,,0.00,VWS V14.01,2013-08-10 04:01:00,
2013-08-10 00:06:00,66.6,65.4,29.98,NW,324,0.0,0.0,96,0.00,,,0.00,VWS V14.01,2013-08-10 04:06:00,
2013-08-10 00:11:00,66.6,65.4,29.99,NW,324,0.0,0.0,96,0.00,,,0.00,VWS V14.01,2013-08-10 04:11:00,
2013-08-10 00:16:00,66.7,65.5,29.99,NW,324,0.0,0.0,96,0.00,,,0.00,VWS V14.01,2013-08-10 04:16:00,
2013-08-10 00:21:00,66.7,65.5,29.99,NW,324,0.0,0.0,96,0.00,,,0.00,VWS V14.01,2013-08-10 04:21:00,
2013-08-10 00:26:00,66.8,65.6,29.99,NW,324,0.0,0.0,96,0.00,,,0.00,VWS V14.01,2013-08-10 04:26:00,
2013-08-10 00:31:00,66.9,65.7,29.99,NW,324,0.0,0.0,96,0.00,,,0.00,VWS V14.01,2013-08-10 04:31:00,
2013-08-10 00:36:00,66.8,65.6,29.99,NW,324,0.0,0.0,96,0.00,,,0.00,VWS V14.01,2013-08-10 04:36:00,
2013-08-10 00:41:00,66.7,65.5,29.99,NW,324,0.0,0.0,96,0.00,,,0.00,VWS V14.01,2013-08-10 04:41:00,
2013-08-10 00:46:00,66.7,65.5,29.99,NW,324,0.0,0.0,96,0.00,,,0.00,VWS V14.01,2013-08-10 04:46:00,
2013-08-10 00:51:00,66.5,65.3,29.99,NW,324,0.0,0.0,96,0.00,,,0.00,VWS V14.01,2013-08-10 04:51:00,
2013-08-10 00:56:00,66.4,65.2,30.00,NW,324,0.0,0.0,96,0.00,,,0.00,VWS V14.01,2013-08-10 04:56:00,
2013-08-10 01:01:00,66.4,65.2,29.99,NW,324,0.0,0.0,96,0.00,,,0.00,VWS V14.01,2013-08-10 05:01:00,
2013-08-10 01:06:00,66.5,65.3,30.00,NW,324,0.0,0.0,96,0.00,,,0.00,VWS V14.01,2013-08-10 05:06:00,
2013-08-10 01:11:00,66.4,65.2,30.00,NW,324,0.0,0.0,96,0.00,,,0.00,VWS V14.01,2013-08-10 05:11:00,
2013-08-10 01:16:00,66.5,65.6,30.00,NW,324,0.0,0.0,97,0.00,,,0.00,VWS V14.01,2013-08-10 05:16:00,
2013-08-10 01:21:00,66.5,65.6,30.00,NW,324,0.0,0.0,97,0.00,,,0.00,VWS V14.01,2013-08-10 05:21:00,
2013-08-10 01:26:00,66.6,65.7,30.00,NW,324,0.0,0.0,97,0.00,,,0.00,VWS V14.01,2013-08-10 05:26:00,
2013-08-10 01:31:00,66.7,65.8,30.00,NW,324,0.0,0.0,97,0.00,,,0.00,VWS V14.01,2013-08-10 05:31:00,
2013-08-10 01:36:00,66.6,65.7,30.00,NW,324,0.0,0.0,97,0.00,,,0.00,VWS V14.01,2013-08-10 05:36:00,
2013-08-10 01:41:00,66.6,65.7,30.00,NW,324,0.0,0.0,97,0.00,,,0.00,VWS V14.01,2013-08-10 05:41:00,
2013-08-10 01:46:00,66.6,65.7,30.00,NW,324,0.0,0.0,97,0.00,,,0.00,VWS V14.01,2013-08-10 05:46:00,
2013-08-10 01:51:00,66.6,65.7,30.00,NW,324,0.0,0.0,97,0.00,,,0.00,VWS V14.01,2013-08-10 05:51:00,
2013-08-10 01:56:00,66.6,65.7,30.00,NW,324,0.0,0.0,97,0.00,,,0.00,VWS V14.01,2013-08-10 05:56:00,
2013-08-10 02:01:00,66.5,65.6,30.00,NW,324,0.0,0.0,97,0.00,,,0.00,VWS V14.01,2013-08-10 06:01:00,
2013-08-10 02:06:00,66.6,65.7,30.00,NW,324,0.0,0.0,97,0.00,,,0.00,VWS V14.01,2013-08-10 06:06:00,
2013-08-10 02:11:00,66.6,65.7,30.00,NW,324,0.0,0.0,97,0.00,,,0.00,VWS V14.01,2013-08-10 06:11:00,
2013-08-10 02:16:00,66.6,65.7,30.00,NW,324,0.0,0.0,97,0.00,,,0.00,VWS V14.01,2013-08-10 06:16:00,
2013-08-10 02:21:00,66.6,65.7,30.00,NW,324,0.0,0.0,97,0.00,,,0.00,VWS V14.01,2013-08-10 06:21:00,
2013-08-10 02:25:00,66.6,65.7,30.00,NW,324,0.0,0.0,97,0.00,,,0.00,VWS V14.01,2013-08-10 06:25:00,
2013-08-10 02:30:00,66.6,65.7,30.00,NW,324,0.0,0.0,97,0.00,,,0.00,VWS V14.01,2013-08-10 06:30:00,
2013-08-10 02:35:00,66.6,65.7,30.00,NW,324,0.0,0.0,97,0.00,,,0.00,VWS V14.01,2013-08-10 06:35:00,
2013-08-10 02:40:00,66.6,65.7,30.00,NW,324,0.0,0.0,97,0.00,,,0.00,VWS V14.01,2013-08-10 06:40:00,
2013-08-10 02:45:00,66.6,65.7,30.00,NW,324,0.0,0.0,97,0.00,,,0.00,VWS V14.01,2013-08-10 06:45:00,
2013-08-10 02:50:00,66.8,66.2,30.01,NW,324,0.0,0.0,98,0.00,,,0.00,VWS V14.01,2013-08-10 06:50:00,
2013-08-10 02:55:00,67.0,66.1,30.01,NW,324,0.0,0.0,97,0.00,,,0.00,VWS V14.01,2013-08-10 06:55:00,
2013-08-10 03:00:00,67.0,66.1,30.00,NW,324,0.0,0.0,97,0.00,,,0.00,VWS V14.01,2013-08-10 07:00:00,
2013-08-10 03:05:00,66.9,66.0,30.01,NW,324,0.0,0.0,97,0.00,,,0.00,VWS V14.01,2013-08-10 07:05:00,
2013-08-10 03:10:00,66.9,66.0,30.01,NW,324,0.0,0.0,97,0.00,,,0.00,VWS V14.01,2013-08-10 07:10:00,
2013-08-10 03:15:00,66.9,66.0,30.00,NW,324,0.0,0.0,97,0.00,,,0.00,VWS V14.01,2013-08-10 07:15:00,
2013-08-10 03:20:00,67.0,66.1,30.01,NW,324,0.0,0.0,97,0.00,,,0.00,VWS V14.01,2013-08-10 07:20:00,
2013-08-10 03:25:00,67.0,66.1,30.00,NW,324,0.0,0.0,97,0.00,,,0.00,VWS V14.01,2013-08-10 07:25:00,
2013-08-10 03:30:00,66.9,66.0,30.01,NW,324,0.0,0.0,97,0.00,,,0.00,VWS V14.01,2013-08-10 07:30:00,
2013-08-10 03:35:00,66.9,66.0,30.00,NW,324,0.0,0.0,97,0.00,,,0.00,VWS V14.01,2013-08-10 07:35:00,
2013-08-10 03:40:00,66.9,66.0,30.01,NW,324,0.0,0.0,97,0.00,,,0.00,VWS V14.01,2013-08-10 07:40:00,
2013-08-10 03:45:00,66.9,66.0,30.01,NW,324,0.0,0.0,97,0.00,,,0.00,VWS V14.01,2013-08-10 07:45:00,
2013-08-10 03:50:00,66.8,65.9,30.01,NW,324,0.0,0.0,97,0.00,,,0.00,VWS V14.01,2013-08-10 07:50:00,
2013-08-10 03:55:00,66.9,66.0,30.01,NW,324,0.0,0.0,97,0.00,,,0.00,VWS V14.01,2013-08-10 07:55:00,
2013-08-10 04:00:00,66.9,66.0,30.01,NW,324,0.0,0.0,97,0.00,,,0.00,VWS V14.01,2013-08-10 08:00:00,
2013-08-10 04:05:00,67.0,66.4,30.01,NW,324,0.0,0.0,98,0.00,,,0.00,VWS V14.01,2013-08-10 08:05:00,
2013-08-10 04:10:00,67.0,66.4,30.01,NW,324,0.0,0.0,98,0.00,,,0.00,VWS V14.01,2013-08-10 08:10:00,
2013-08-10 04:15:00,67.1,66.5,30.01,NW,324,0.0,0.0,98,0.00,,,0.00,VWS V14.01,2013-08-10 08:15:00,
2013-08-10 04:20:00,67.1,66.2,30.01,NW,324,0.0,0.0,97,0.00,,,0.00,VWS V14.01,2013-08-10 08:20:00,
2013-08-10 04:25:00,67.1,66.2,30.01,NW,324,0.0,0.0,97,0.00,,,0.00,VWS V14.01,2013-08-10 08:25:00,
2013-08-10 04:30:00,67.0,66.1,30.01,NW,324,0.0,0.0,97,0.00,,,0.00,VWS V14.01,2013-08-10 08:30:00,
2013-08-10 04:35:00,67.0,66.1,30.01,NW,324,0.0,0.0,97,0.00,,,0.00,VWS V14.01,2013-08-10 08:35:00,
2013-08-10 04:40:00,67.0,66.4,30.02,NW,324,0.0,0.0,98,0.00,,,0.00,VWS V14.01,2013-08-10 08:40:00,
2013-08-10 04:45:00,67.0,66.4,30.01,NW,324,0.0,0.0,98,0.00,,,0.00,VWS V14.01,2013-08-10 08:45:00,
2013-08-10 04:50:00,67.0,66.4,30.02,NW,324,0.0,0.0,98,0.00,,,0.00,VWS V14.01,2013-08-10 08:50:00,
2013-08-10 04:55:00,67.1,66.5,30.02,NW,324,0.0,0.0,98,0.00,,,0.00,VWS V14.01,2013-08-10 08:55:00,
2013-08-10 05:00:00,67.1,66.5,30.02,NW,324,0.0,0.0,98,0.00,,,0.00,VWS V14.01,2013-08-10 09:00:00,
2013-08-10 05:05:00,67.0,66.4,30.02,NW,324,0.0,0.0,98,0.00,,,0.00,VWS V14.01,2013-08-10 09:05:00,
2013-08-10 05:10:00,67.0,66.1,30.02,NW,324,0.0,0.0,97,0.00,,,0.00,VWS V14.01,2013-08-10 09:10:00,
2013-08-10 05:15:00,66.8,65.9,30.02,NW,324,0.0,0.0,97,0.00,,,0.00,VWS V14.01,2013-08-10 09:15:00,
2013-08-10 05:20:00,66.7,65.8,30.02,NW,324,0.0,0.0,97,0.00,,,0.00,VWS V14.01,2013-08-10 09:20:00,
2013-08-10 05:25:00,66.6,66.0,30.02,NW,324,0.0,0.0,98,0.00,,,0.00,VWS V14.01,2013-08-10 09:25:00,
2013-08-10 05:30:00,66.5,65.9,30.02,NW,324,0.0,0.0,98,0.00,,,0.00,VWS V14.01,2013-08-10 09:30:00,
2013-08-10 05:35:00,66.5,65.9,30.02,NW,324,0.0,0.0,98,0.00,,,0.00,VWS V14.01,2013-08-10 09:35:00,
2013-08-10 05:40:00,66.4,65.5,30.02,NW,324,0.0,0.0,97,0.00,,,0.00,VWS V14.01,2013-08-10 09:40:00,
2013-08-10 05:45:00,66.3,65.4,30.02,NW,324,0.0,0.0,97,0.00,,,0.00,VWS V14.01,2013-08-10 09:45:00,
2013-08-10 05:50:00,66.2,65.3,30.02,NW,324,0.0,0.0,97,0.00,,,0.00,VWS V14.01,2013-08-10 09:50:00,
2013-08-10 05:55:00,66.1,65.2,30.03,NW,324,0.0,0.0,97,0.00,,,0.00,VWS V14.01,2013-08-10 09:55:00,
2013-08-10 06:00:00,66.0,65.1,30.03,NW,324,0.0,0.0,97,0.00,,,0.00,VWS V14.01,2013-08-10 10:00:00,
2013-08-10 06:05:00,65.9,65.3,30.03,NW,324,0.0,0.0,98,0.00,,,0.00,VWS V14.01,2013-08-10 10:05:00,
2013-08-10 06:10:00,65.8,65.2,30.03,NW,324,0.0,0.0,98,0.00,,,0.00,VWS V14.01,2013-08-10 10:10:00,
2013-08-10 06:15:00,65.7,64.8,30.03,NW,324,0.0,0.0,97,0.00,,,0.00,VWS V14.01,2013-08-10 10:15:00,
2013-08-10 06:20:00,65.6,64.7,30.03,NW,324,0.0,0.0,97,0.00,,,0.00,VWS V14.01,2013-08-10 10:20:00,
2013-08-10 06:25:00,65.5,64.6,30.03,NW,324,0.0,0.0,97,0.00,,,0.00,VWS V14.01,2013-08-10 10:25:00,
2013-08-10 06:30:00,65.5,64.9,30.03,NW,324,0.0,0.0,98,0.00,,,0.00,VWS V14.01,2013-08-10 10:30:00,
2013-08-10 06:35:00,65.5,64.9,30.04,NW,324,0.0,0.0,98,0.00,,,0.00,VWS V14.01,2013-08-10 10:35:00,
2013-08-10 06:40:00,65.4,64.8,30.03,NW,324,0.0,0.0,98,0.00,,,0.00,VWS V14.01,2013-08-10 10:40:00,
2013-08-10 06:45:00,65.3,64.7,30.04,NW,324,0.0,0.0,98,0.00,,,0.00,VWS V14.01,2013-08-10 10:45:00,
2013-08-10 06:50:00,65.2,64.6,30.04,NW,324,0.0,0.0,98,0.00,,,0.00,VWS V14.01,2013-08-10 10:50:00,
2013-08-10 06:55:00,65.0,64.1,30.04,NW,324,0.0,0.0,97,0.00,,,0.00,VWS V14.01,2013-08-10 10:55:00,
2013-08-10 07:00:00,64.9,64.0,30.04,NW,324,0.0,0.0,97,0.00,,,0.00,VWS V14.01,2013-08-10 11:00:00,
2013-08-10 07:05:00,64.7,63.8,30.04,NW,324,0.0,0.0,97,0.00,,,0.00,VWS V14.01,2013-08-10 11:05:00,
2013-08-10 07:10:00,64.5,63.6,30.04,NW,324,0.0,0.0,97,0.00,,,0.00,VWS V14.01,2013-08-10 11:10:00,
2013-08-10 07:15:00,64.4,63.5,30.05,NW,324,0.0,0.0,97,0.00,,,0.00,VWS V14.01,2013-08-10 11:15:00,
2013-08-10 07:20:00,64.4,63.5,30.04,NW,324,0.0,0.0,97,0.00,,,0.00,VWS V14.01,2013-08-10 11:20:00,
2013-08-10 07:25:00,64.3,63.4,30.05,NW,324,0.0,0.0,97,0.00,,,0.00,VWS V14.01,2013-08-10 11:25:00,
2013-08-10 07:30:00,64.1,63.5,30.05,NW,324,0.0,0.0,98,0.00,,,0.00,VWS V14.01,2013-08-10 11:30:00,
2013-08-10 07:35:00,64.0,63.4,30.05,NW,324,0.0,0.0,98,0.00,,,0.00,VWS V14.01,2013-08-10 11:35:00,
2013-08-10 07:40:00,64.0,63.4,30.05,NW,324,0.0,0.0,98,0.00,,,0.00,VWS V14.01,2013-08-10 11:40:00,
2013-08-10 07:45:00,63.9,63.3,30.05,NW,324,0.0,0.0,98,0.00,,,0.00,VWS V14.01,2013-08-10 11:45:00,
2013-08-10 07:50:00,63.9,63.3,30.05,NW,324,0.0,0.0,98,0.00,,,0.00,VWS V14.01,2013-08-10 11:50:00,
2013-08-10 07:55:00,63.9,63.3,30.05,NW,324,0.0,0.0,98,0.00,,,0.00,VWS V14.01,2013-08-10 11:55:00,
2013-08-10 08:00:00,64.0,63.4,30.05,NW,324,0.0,0.0,98,0.00,,,0.00,VWS V14.01,2013-08-10 12:00:00,
2013-08-10 08:05:00,64.1,63.5,30.05,NW,324,0.0,0.0,98,0.00,,,0.00,VWS V14.01,2013-08-10 12:05:00,
2013-08-10 08:10:00,64.2,63.6,30.05,NW,324,0.0,0.0,98,0.00,,,0.00,VWS V14.01,2013-08-10 12:10:00,
2013-08-10 08:15:00,64.3,63.7,30.05,NW,324,0.0,0.0,98,0.00,,,0.00,VWS V14.01,2013-08-10 12:15:00,
2013-08-10 08:20:00,64.5,63.9,30.05,NW,324,0.0,0.0,98,0.00,,,0.00,VWS V14.01,2013-08-10 12:20:00,
2013-08-10 08:25:00,64.7,64.1,30.05,NW,324,0.0,0.0,98,0.00,,,0.00,VWS V14.01,2013-08-10 12:25:00,
2013-08-10 08:30:00,64.9,64.3,30.05,NW,324,0.0,0.0,98,0.00,,,0.00,VWS V14.01,2013-08-10 12:30:00,
2013-08-10 08:35:00,65.0,64.4,30.05,NW,324,0.0,0.0,98,0.00,,,0.00,VWS V14.01,2013-08-10 12:35:00,
2013-08-10 08:40:00,65.1,64.5,30.05,NW,324,0.0,1.0,98,0.00,,,0.00,VWS V14.01,2013-08-10 12:40:00,
2013-08-10 08:45:00,65.2,64.6,30.05,NW,324,0.0,1.0,98,0.00,,,0.00,VWS V14.01,2013-08-10 12:45:00,
2013-08-10 08:50:00,65.3,64.7,30.05,NW,324,0.0,1.0,98,0.00,,,0.00,VWS V14.01,2013-08-10 12:50:00,
2013-08-10 08:55:00,65.4,64.8,30.05,NW,324,0.0,2.0,98,0.00,,,0.00,VWS V14.01,2013-08-10 12:55:00,
2013-08-10 09:00:00,65.6,65.3,30.05,NW,324,0.0,2.0,99,0.00,,,0.00,VWS V14.01,2013-08-10 13:00:00,
2013-08-10 09:05:00,65.7,65.1,30.05,NW,324,0.0,0.0,98,0.00,,,0.00,VWS V14.01,2013-08-10 13:05:00,
2013-08-10 09:10:00,65.8,65.2,30.06,NW,324,0.0,0.0,98,0.00,,,0.00,VWS V14.01,2013-08-10 13:10:00,
2013-08-10 09:15:00,65.9,65.3,30.05,NNW,344,0.0,2.0,98,0.00,,,0.00,VWS V14.01,2013-08-10 13:15:00,
2013-08-10 09:20:00,66.2,65.9,30.05,NNW,344,0.0,2.0,99,0.00,,,0.00,VWS V14.01,2013-08-10 13:20:00,
2013-08-10 09:25:00,66.3,65.7,30.05,NNW,344,0.0,2.0,98,0.00,,,0.00,VWS V14.01,2013-08-10 13:25:00,
2013-08-10 09:30:00,66.4,65.8,30.06,NNW,327,0.0,2.0,98,0.00,,,0.00,VWS V14.01,2013-08-10 13:30:00,
2013-08-10 09:35:00,66.8,66.2,30.06,NNW,327,2.0,2.0,98,0.00,,,0.00,VWS V14.01,2013-08-10 13:35:00,
2013-08-10 09:40:00,67.1,66.2,30.06,SW,223,0.0,2.0,97,0.00,,,0.00,VWS V14.01,2013-08-10 13:40:00,
2013-08-10 09:45:00,67.6,66.7,30.06,SW,223,0.0,3.0,97,0.00,,,0.00,VWS V14.01,2013-08-10 13:45:00,
2013-08-10 09:50:00,67.9,66.7,30.06,SW,223,0.0,3.0,96,0.00,,,0.00,VWS V14.01,2013-08-10 13:50:00,
2013-08-10 09:55:00,68.3,67.1,30.05,SW,223,0.0,0.0,96,0.00,,,0.00,VWS V14.01,2013-08-10 13:55:00,
2013-08-10 10:00:00,68.5,66.7,30.06,SW,223,0.0,2.0,94,0.00,,,0.00,VWS V14.01,2013-08-10 14:00:00,
2013-08-10 10:05:00,69.0,66.6,30.06,SW,223,0.0,2.0,92,0.00,,,0.00,VWS V14.01,2013-08-10 14:05:00,
2013-08-10 10:10:00,69.5,66.8,30.06,NNW,344,1.0,2.0,91,0.00,,,0.00,VWS V14.01,2013-08-10 14:10:00,
2013-08-10 10:15:00,70.0,66.6,30.06,NNW,336,0.0,2.0,89,0.00,,,0.00,VWS V14.01,2013-08-10 14:15:00,
2013-08-10 10:20:00,70.6,66.9,30.06,NW,313,0.0,2.0,88,0.00,,,0.00,VWS V14.01,2013-08-10 14:20:00,
2013-08-10 10:24:00,71.1,67.4,30.06,NW,313,0.0,2.0,88,0.00,,,0.00,VWS V14.01,2013-08-10 14:24:00,
2013-08-10 10:25:00,71.1,67.4,30.06,NW,313,0.0,2.0,88,0.00,,,0.00,VWS V14.01,2013-08-10 14:25:00,
2013-08-10 10:30:00,71.8,66.4,30.06,North,351,0.0,1.0,83,0.00,,,0.00,VWS V14.01,2013-08-10 14:30:00,
2013-08-10 10:35:00,72.4,67.6,30.07,North,350,0.0,1.0,85,0.00,,,0.00,VWS V14.01,2013-08-10 14:35:00,
2013-08-10 10:40:00,72.3,66.8,30.07,NNW,337,0.0,0.0,83,0.00,,,0.00,VWS V14.01,2013-08-10 14:40:00,
2013-08-10 10:45:00,72.3,67.2,30.07,NNW,337,0.0,0.0,84,0.00,,,0.00,VWS V14.01,2013-08-10 14:45:00,
2013-08-10 10:50:00,73.4,67.9,30.07,NNW,335,0.0,2.0,83,0.00,,,0.00,VWS V14.01,2013-08-10 14:50:00,
2013-08-10 10:55:00,74.4,66.7,30.07,NNW,341,0.0,2.0,77,0.00,,,0.00,VWS V14.01,2013-08-10 14:55:00,
2013-08-10 11:00:00,74.9,67.2,30.07,WSW,242,0.0,3.0,77,0.00,,,0.00,VWS V14.01,2013-08-10 15:00:00,
2013-08-10 11:05:00,75.2,67.1,30.07,WSW,253,0.0,3.0,76,0.00,,,0.00,VWS V14.01,2013-08-10 15:05:00,
2013-08-10 11:10:00,75.4,66.9,30.07,WSW,253,0.0,3.0,75,0.00,,,0.00,VWS V14.01,2013-08-10 15:10:00,
2013-08-10 11:15:00,75.4,66.9,30.07,SSE,157,0.0,2.0,75,0.00,,,0.00,VWS V14.01,2013-08-10 15:15:00,
2013-08-10 11:20:00,76.0,67.9,30.07,WNW,294,0.0,2.0,76,0.00,,,0.00,VWS V14.01,2013-08-10 15:20:00,
2013-08-10 11:25:00,75.6,67.5,30.07,WNW,294,0.0,2.0,76,0.00,,,0.00,VWS V14.01,2013-08-10 15:25:00,
2013-08-10 11:30:00,75.5,68.2,30.07,WNW,294,0.0,2.0,78,0.00,,,0.00,VWS V14.01,2013-08-10 15:30:00,
2013-08-10 11:35:00,75.3,68.3,30.08,WNW,294,0.0,0.0,79,0.00,,,0.00,VWS V14.01,2013-08-10 15:35:00,
2013-08-10 11:40:00,74.5,67.6,30.08,WNW,294,0.0,1.0,79,0.00,,,0.00,VWS V14.01,2013-08-10 15:40:00,
2013-08-10 11:45:00,73.9,67.0,30.08,WNW,302,0.0,1.0,79,0.00,,,0.00,VWS V14.01,2013-08-10 15:45:00,
2013-08-10 11:50:00,74.9,68.7,30.08,SSE,153,0.0,5.0,81,0.00,,,0.00,VWS V14.01,2013-08-10 15:50:00,
2013-08-10 11:55:00,75.3,66.1,30.08,ESE,118,0.0,5.0,73,0.00,,,0.00,VWS V14.01,2013-08-10 15:55:00,
2013-08-10 12:00:00,76.0,65.5,30.08,West,268,0.0,5.0,70,0.00,,,0.00,VWS V14.01,2013-08-10 16:00:00,
2013-08-10 12:05:00,76.7,66.6,30.08,SE,124,1.0,2.0,71,0.00,,,0.00,VWS V14.01,2013-08-10 16:05:00,
2013-08-10 12:10:00,76.7,66.2,30.08,ENE,78,0.0,3.0,70,0.00,,,0.00,VWS V14.01,2013-08-10 16:10:00,
2013-08-10 12:15:00,75.8,64.1,30.08,NW,324,0.0,3.0,67,0.00,,,0.00,VWS V14.01,2013-08-10 16:15:00,
2013-08-10 12:20:00,75.1,65.9,30.08,NNE,13,0.0,3.0,73,0.00,,,0.00,VWS V14.01,2013-08-10 16:20:00,
2013-08-10 12:25:00,75.1,65.1,30.08,NNW,346,0.0,2.0,71,0.00,,,0.00,VWS V14.01,2013-08-10 16:25:00,
2013-08-10 12:30:00,75.8,66.5,30.08,NNW,346,0.0,1.0,73,0.00,,,0.00,VWS V14.01,2013-08-10 16:30:00,
2013-08-10 12:35:00,76.8,65.0,30.08,NNW,346,0.0,1.0,67,0.00,,,0.00,VWS V14.01,2013-08-10 16:35:00,
2013-08-10 12:40:00,77.5,65.3,30.08,WNW,302,2.0,2.0,66,0.00,,,0.00,VWS V14.01,2013-08-10 16:40:00,
2013-08-10 12:45:00,78.1,66.3,30.07,NW,310,0.0,2.0,67,0.00,,,0.00,VWS V14.01,2013-08-10 16:45:00,
2013-08-10 12:50:00,77.4,66.9,30.08,NW,310,0.0,2.0,70,0.00,,,0.00,VWS V14.01,2013-08-10 16:50:00,
2013-08-10 12:55:00,77.6,66.2,30.08,West,265,0.0,2.0,68,0.00,,,0.00,VWS V14.01,2013-08-10 16:55:00,
2013-08-10 13:00:00,78.0,65.7,30.08,WNW,290,2.0,2.0,66,0.00,,,0.00,VWS V14.01,2013-08-10 17:00:00,
2013-08-10 13:05:00,77.2,66.7,30.08,NW,309,0.0,4.0,70,0.00,,,0.00,VWS V14.01,2013-08-10 17:05:00,
2013-08-10 13:10:00,75.7,65.6,30.08,NW,309,0.0,4.0,71,0.00,,,0.00,VWS V14.01,2013-08-10 17:10:00,
2013-08-10 13:15:00,75.6,66.7,30.07,WNW,283,0.0,2.0,74,0.00,,,0.00,VWS V14.01,2013-08-10 17:15:00,
2013-08-10 13:20:00,75.7,64.4,30.07,SSE,149,0.0,2.0,68,0.00,,,0.00,VWS V14.01,2013-08-10 17:20:00,
2013-08-10 13:25:00,74.9,66.4,30.07,SSE,149,0.0,2.0,75,0.00,,,0.00,VWS V14.01,2013-08-10 17:25:00,
2013-08-10 13:30:00,74.7,64.7,30.07,SSE,149,0.0,2.0,71,0.00,,,0.00,VWS V14.01,2013-08-10 17:30:00,
2013-08-10 13:35:00,76.5,64.7,30.07,ENE,76,0.0,2.0,67,0.00,,,0.00,VWS V14.01,2013-08-10 17:35:00,
2013-08-10 13:40:00,77.7,65.4,30.07,NE,47,0.0,2.0,66,0.00,,,0.00,VWS V14.01,2013-08-10 17:40:00,
2013-08-10 13:45:00,77.7,64.6,30.08,NNE,21,0.0,2.0,64,0.00,,,0.00,VWS V14.01,2013-08-10 17:45:00,
2013-08-10 13:50:00,76.7,64.9,30.07,NNE,21,0.0,2.0,67,0.00,,,0.00,VWS V14.01,2013-08-10 17:50:00,
2013-08-10 13:55:00,76.3,65.4,30.07,NNE,25,1.0,1.0,69,0.00,,,0.00,VWS V14.01,2013-08-10 17:55:00,
2013-08-10 14:00:00,78.1,69.5,30.07,NNE,26,0.0,1.0,75,0.00,,,0.00,VWS V14.01,2013-08-10 18:00:00,
2013-08-10 14:05:00,78.7,63.7,30.06,SSW,212,2.0,4.0,60,0.00,,,0.00,VWS V14.01,2013-08-10 18:05:00,
2013-08-10 14:10:00,79.4,68.3,30.07,WNW,298,3.0,4.0,69,0.00,,,0.00,VWS V14.01,2013-08-10 18:10:00,
2013-08-10 14:15:00,78.9,65.7,30.07,NE,51,1.0,4.0,64,0.00,,,0.00,VWS V14.01,2013-08-10 18:15:00,
2013-08-10 14:20:00,76.7,64.9,30.07,NE,53,0.0,3.0,67,0.00,,,0.00,VWS V14.01,2013-08-10 18:20:00,
2013-08-10 14:25:00,77.3,65.5,30.06,NE,53,0.0,3.0,67,0.00,,,0.00,VWS V14.01,2013-08-10 18:25:00,
2013-08-10 14:30:00,78.4,66.6,30.06,ENE,63,0.0,2.0,67,0.00,,,0.00,VWS V14.01,2013-08-10 18:30:00,
2013-08-10 14:34:00,78.9,66.2,30.07,WNW,303,2.0,2.0,65,0.00,,,0.00,VWS V14.01,2013-08-10 18:34:00,
2013-08-10 14:39:00,78.5,64.0,30.07,WSW,257,2.0,3.0,61,0.00,,,0.00,VWS V14.01,2013-08-10 18:39:00,
2013-08-10 14:44:00,78.1,63.1,30.06,ENE,61,0.0,3.0,60,0.00,,,0.00,VWS V14.01,2013-08-10 18:44:00,
2013-08-10 14:49:00,77.7,65.4,30.06,ENE,64,0.0,3.0,66,0.00,,,0.00,VWS V14.01,2013-08-10 18:49:00,
2013-08-10 14:54:00,78.9,65.7,30.06,NW,309,0.0,2.0,64,0.00,,,0.00,VWS V14.01,2013-08-10 18:54:00,
2013-08-10 14:59:00,79.5,64.4,30.06,ENE,76,0.0,3.0,60,0.00,,,0.00,VWS V14.01,2013-08-10 18:59:00,
2013-08-10 15:04:00,80.7,66.5,30.06,NNW,336,0.0,4.0,62,0.00,,,0.00,VWS V14.01,2013-08-10 19:04:00,
2013-08-10 15:09:00,80.1,64.5,30.06,NE,34,0.0,4.0,59,0.00,,,0.00,VWS V14.01,2013-08-10 19:09:00,
2013-08-10 15:14:00,79.7,64.6,30.06,NE,34,0.0,3.0,60,0.00,,,0.00,VWS V14.01,2013-08-10 19:14:00,
2013-08-10 15:19:00,80.3,64.2,30.06,ENE,57,0.0,3.0,58,0.00,,,0.00,VWS V14.01,2013-08-10 19:19:00,
2013-08-10 15:24:00,81.1,62.9,30.06,West,279,0.0,3.0,54,0.00,,,0.00,VWS V14.01,2013-08-10 19:24:00,
2013-08-10 15:29:00,80.6,64.0,30.06,East,88,2.0,3.0,57,0.00,,,0.00,VWS V14.01,2013-08-10 19:29:00,
2013-08-10 15:34:00,80.1,63.0,30.06,ESE,103,1.0,2.0,56,0.00,,,0.00,VWS V14.01,2013-08-10 19:34:00,
2013-08-10 15:39:00,80.0,63.4,30.05,ENE,77,0.0,2.0,57,0.00,,,0.00,VWS V14.01,2013-08-10 19:39:00,
2013-08-10 15:44:00,80.4,63.8,30.05,NE,50,0.0,5.0,57,0.00,,,0.00,VWS V14.01,2013-08-10 19:44:00,
2013-08-10 15:49:00,81.3,64.1,30.05,WNW,298,0.0,5.0,56,0.00,,,0.00,VWS V14.01,2013-08-10 19:49:00,
2013-08-10 15:54:00,81.8,62.5,30.05,NNW,338,1.0,5.0,52,0.00,,,0.00,VWS V14.01,2013-08-10 19:54:00,
2013-08-10 15:59:00,80.6,62.4,30.05,SSW,199,0.0,4.0,54,0.00,,,0.00,VWS V14.01,2013-08-10 19:59:00,
2013-08-10 16:04:00,80.6,65.0,30.05,WNW,284,0.0,4.0,59,0.00,,,0.00,VWS V14.01,2013-08-10 20:04:00,
2013-08-10 16:09:00,80.7,62.0,30.05,WNW,297,1.0,4.0,53,0.00,,,0.00,VWS V14.01,2013-08-10 20:09:00,
2013-08-10 16:14:00,79.9,61.8,30.05,WNW,296,0.0,4.0,54,0.00,,,0.00,VWS V14.01,2013-08-10 20:14:00,
2013-08-10 16:19:00,79.7,65.5,30.05,NE,40,0.0,4.0,62,0.00,,,0.00,VWS V14.01,2013-08-10 20:19:00,
2013-08-10 16:24:00,80.4,62.8,30.05,NNW,344,0.0,4.0,55,0.00,,,0.00,VWS V14.01,2013-08-10 20:24:00,
2013-08-10 16:29:00,80.8,63.1,30.05,NW,323,3.0,4.0,55,0.00,,,0.00,VWS V14.01,2013-08-10 20:29:00,
2013-08-10 16:34:00,80.5,63.4,30.05,WNW,292,1.0,6.0,56,0.00,,,0.00,VWS V14.01,2013-08-10 20:34:00,
2013-08-10 16:39:00,80.1,64.5,30.05,NW,310,0.0,8.0,59,0.00,,,0.00,VWS V14.01,2013-08-10 20:39:00,
2013-08-10 16:44:00,80.1,66.8,30.05,NW,323,0.0,8.0,64,0.00,,,0.00,VWS V14.01,2013-08-10 20:44:00,
2013-08-10 16:49:00,80.3,64.2,30.05,ENE,59,1.0,8.0,58,0.00,,,0.00,VWS V14.01,2013-08-10 20:49:00,
2013-08-10 16:54:00,79.8,65.2,30.05,NNW,346,0.0,6.0,61,0.00,,,0.00,VWS V14.01,2013-08-10 20:54:00,
2013-08-10 16:59:00,80.1,64.5,30.05,West,279,0.0,3.0,59,0.00,,,0.00,VWS V14.01,2013-08-10 20:59:00,
2013-08-10 17:04:00,79.3,62.8,30.05,NNW,330,1.0,3.0,57,0.00,,,0.00,VWS V14.01,2013-08-10 21:04:00,
2013-08-10 17:09:00,78.7,62.2,30.05,ENE,67,0.0,7.0,57,0.00,,,0.00,VWS V14.01,2013-08-10 21:09:00,
2013-08-10 17:14:00,78.5,63.0,30.05,NW,322,0.0,7.0,59,0.00,,,0.00,VWS V14.01,2013-08-10 21:14:00,
2013-08-10 17:19:00,78.2,64.1,30.05,NW,315,0.0,7.0,62,0.00,,,0.00,VWS V14.01,2013-08-10 21:19:00,
2013-08-10 17:24:00,77.6,62.6,30.05,NNW,331,0.0,4.0,60,0.00,,,0.00,VWS V14.01,2013-08-10 21:24:00,
2013-08-10 17:29:00,77.8,63.3,30.05,NW,315,2.0,3.0,61,0.00,,,0.00,VWS V14.01,2013-08-10 21:29:00,
2013-08-10 17:34:00,78.0,62.5,30.05,NW,309,0.0,3.0,59,0.00,,,0.00,VWS V14.01,2013-08-10 21:34:00,
2013-08-10 17:39:00,77.8,62.8,30.05,SW,232,0.0,5.0,60,0.00,,,0.00,VWS V14.01,2013-08-10 21:39:00,
2013-08-10 17:44:00,77.8,63.8,30.05,NW,323,0.0,5.0,62,0.00,,,0.00,VWS V14.01,2013-08-10 21:44:00,
2013-08-10 17:49:00,77.3,63.3,30.05,West,271,0.0,5.0,62,0.00,,,0.00,VWS V14.01,2013-08-10 21:49:00,
2013-08-10 17:54:00,76.7,63.6,30.05,NNW,335,1.0,2.0,64,0.00,,,0.00,VWS V14.01,2013-08-10 21:54:00,
2013-08-10 17:59:00,76.0,64.3,30.05,North,360,0.0,2.0,67,0.00,,,0.00,VWS V14.01,2013-08-10 21:59:00,
2013-08-10 18:04:00,75.6,62.6,30.05,North,349,0.0,2.0,64,0.00,,,0.00,VWS V14.01,2013-08-10 22:04:00,
2013-08-10 18:09:00,75.5,63.4,30.05,NNW,336,0.0,3.0,66,0.00,,,0.00,VWS V14.01,2013-08-10 22:09:00,
2013-08-10 18:14:00,75.2,65.6,30.05,NNW,336,0.0,3.0,72,0.00,,,0.00,VWS V14.01,2013-08-10 22:14:00,
2013-08-10 18:19:00,74.7,62.6,30.05,NNW,336,0.0,1.0,66,0.00,,,0.00,VWS V14.01,2013-08-10 22:19:00,
2013-08-10 18:24:00,75.1,63.0,30.05,NNW,336,0.0,1.0,66,0.00,,,0.00,VWS V14.01,2013-08-10 22:24:00,
2013-08-10 18:29:00,75.5,62.9,30.05,NNW,336,0.0,1.0,65,0.00,,,0.00,VWS V14.01,2013-08-10 22:29:00,
2013-08-10 18:34:00,75.6,62.1,30.05,ENE,63,0.0,2.0,63,0.00,,,0.00,VWS V14.01,2013-08-10 22:34:00,
2013-08-10 18:39:00,75.7,64.0,30.05,ENE,65,0.0,2.0,67,0.00,,,0.00,VWS V14.01,2013-08-10 22:39:00,
2013-08-10 18:44:00,75.6,63.9,30.04,ENE,61,0.0,2.0,67,0.00,,,0.00,VWS V14.01,2013-08-10 22:44:00,
2013-08-10 18:49:00,75.5,64.2,30.04,ENE,61,0.0,0.0,68,0.00,,,0.00,VWS V14.01,2013-08-10 22:49:00,
2013-08-10 18:54:00,75.1,62.5,30.04,ENE,58,0.0,1.0,65,0.00,,,0.00,VWS V14.01,2013-08-10 22:54:00,
2013-08-10 18:59:00,75.1,63.8,30.04,ENE,58,0.0,1.0,68,0.00,,,0.00,VWS V14.01,2013-08-10 22:59:00,
2013-08-10 19:04:00,75.0,64.2,30.04,ENE,58,0.0,1.0,69,0.00,,,0.00,VWS V14.01,2013-08-10 23:04:00,
2013-08-10 19:09:00,74.7,63.5,30.04,ENE,58,0.0,1.0,68,0.00,,,0.00,VWS V14.01,2013-08-10 23:09:00,
2013-08-10 19:14:00,74.5,64.5,30.04,ENE,58,0.0,1.0,71,0.00,,,0.00,VWS V14.01,2013-08-10 23:14:00,
2013-08-10 19:19:00,74.2,64.2,30.04,ENE,78,0.0,1.0,71,0.00,,,0.00,VWS V14.01,2013-08-10 23:19:00,
2013-08-10 19:24:00,73.8,63.0,30.04,ENE,78,0.0,1.0,69,0.00,,,0.00,VWS V14.01,2013-08-10 23:24:00,
2013-08-10 19:29:00,73.5,63.1,30.04,ENE,78,0.0,1.0,70,0.00,,,0.00,VWS V14.01,2013-08-10 23:29:00,
2013-08-10 19:34:00,73.2,62.8,30.04,ENE,78,0.0,1.0,70,0.00,,,0.00,VWS V14.01,2013-08-10 23:34:00,
2013-08-10 19:39:00,72.9,62.1,30.04,ENE,78,0.0,0.0,69,0.00,,,0.00,VWS V14.01,2013-08-10 23:39:00,
2013-08-10 19:44:00,72.7,62.4,30.04,East,80,0.0,1.0,70,0.00,,,0.00,VWS V14.01,2013-08-10 23:44:00,
2013-08-10 19:49:00,72.5,62.2,30.04,WNW,292,0.0,1.0,70,0.00,,,0.00,VWS V14.01,2013-08-10 23:49:00,
2013-08-10 19:54:00,72.2,61.9,30.04,WNW,292,0.0,1.0,70,0.00,,,0.00,VWS V14.01,2013-08-10 23:54:00,
2013-08-10 19:59:00,71.9,61.6,30.04,WNW,292,0.0,1.0,70,0.00,,,0.00,VWS V14.01,2013-08-10 23:59:00,
2013-08-10 20:04:00,71.5,61.6,30.04,WNW,292,0.0,0.0,71,0.00,,,0.00,VWS V14.01,2013-08-11 00:04:00,
2013-08-10 20:09:00,71.1,61.6,30.04,WNW,292,0.0,0.0,72,0.00,,,0.00,VWS V14.01,2013-08-11 00:09:00,
2013-08-10 20:14:00,70.8,61.7,30.05,WNW,292,0.0,0.0,73,0.00,,,0.00,VWS V14.01,2013-08-11 00:14:00,
2013-08-10 20:19:00,70.4,61.3,30.05,WNW,292,0.0,0.0,73,0.00,,,0.00,VWS V14.01,2013-08-11 00:19:00,
2013-08-10 20:24:00,69.9,61.2,30.05,WNW,292,0.0,0.0,74,0.00,,,0.00,VWS V14.01,2013-08-11 00:24:00,
2013-08-10 20:29:00,69.5,61.2,30.05,WNW,292,0.0,0.0,75,0.00,,,0.00,VWS V14.01,2013-08-11 00:29:00,
2013-08-10 20:34:00,69.2,61.0,30.05,WNW,292,0.0,0.0,75,0.00,,,0.00,VWS V14.01,2013-08-11 00:34:00,
2013-08-10 20:39:00,68.8,60.2,30.05,WNW,292,0.0,0.0,74,0.00,,,0.00,VWS V14.01,2013-08-11 00:39:00,
2013-08-10 20:44:00,68.5,60.3,30.05,WNW,292,0.0,0.0,75,0.00,,,0.00,VWS V14.01,2013-08-11 00:44:00,
2013-08-10 20:49:00,68.2,60.3,30.05,WNW,292,0.0,0.0,76,0.00,,,0.00,VWS V14.01,2013-08-11 00:49:00,
2013-08-10 20:54:00,67.9,60.1,30.05,WNW,292,0.0,0.0,76,0.00,,,0.00,VWS V14.01,2013-08-11 00:54:00,
2013-08-10 20:59:00,67.6,59.8,30.05,WNW,292,0.0,0.0,76,0.00,,,0.00,VWS V14.01,2013-08-11 00:59:00,
2013-08-10 21:04:00,67.2,59.4,30.05,WNW,292,0.0,0.0,76,0.00,,,0.00,VWS V14.01,2013-08-11 01:04:00,
2013-08-10 21:09:00,66.9,59.1,30.05,WNW,292,0.0,0.0,76,0.00,,,0.00,VWS V14.01,2013-08-11 01:09:00,
2013-08-10 21:14:00,66.6,59.2,30.05,WNW,292,0.0,0.0,77,0.00,,,0.00,VWS V14.01,2013-08-11 01:14:00,
2013-08-10 21:19:00,66.5,59.1,30.06,WNW,292,0.0,0.0,77,0.00,,,0.00,VWS V14.01,2013-08-11 01:19:00,
2013-08-10 21:24:00,66.3,59.2,30.06,WNW,292,0.0,0.0,78,0.00,,,0.00,VWS V14.01,2013-08-11 01:24:00,
2013-08-10 21:29:00,66.0,59.0,30.06,WNW,292,0.0,0.0,78,0.00,,,0.00,VWS V14.01,2013-08-11 01:29:00,
2013-08-10 21:34:00,65.8,59.5,30.06,WNW,292,0.0,0.0,80,0.00,,,0.00,VWS V14.01,2013-08-11 01:34:00,
2013-08-10 21:39:00,65.6,59.6,30.06,WNW,292,0.0,0.0,81,0.00,,,0.00,VWS V14.01,2013-08-11 01:39:00,
2013-08-10 21:44:00,65.4,59.4,30.07,WNW,292,0.0,0.0,81,0.00,,,0.00,VWS V14.01,2013-08-11 01:44:00,
2013-08-10 21:48:00,65.1,59.1,30.07,WNW,292,0.0,0.0,81,0.00,,,0.00,VWS V14.01,2013-08-11 01:48:00,
2013-08-10 21:53:00,64.9,58.9,30.07,WNW,292,0.0,0.0,81,0.00,,,0.00,VWS V14.01,2013-08-11 01:53:00,
2013-08-10 21:58:00,64.6,58.7,30.08,WNW,292,0.0,0.0,81,0.00,,,0.00,VWS V14.01,2013-08-11 01:58:00,
2013-08-10 22:03:00,64.3,58.3,30.07,WNW,292,0.0,0.0,81,0.00,,,0.00,VWS V14.01,2013-08-11 02:03:00,
2013-08-10 22:04:00,64.3,58.7,30.07,WNW,292,0.0,0.0,82,0.00,,,0.00,VWS V14.01,2013-08-11 02:04:00,
2013-08-10 22:09:00,64.1,58.5,30.08,WNW,292,0.0,0.0,82,0.00,,,0.00,VWS V14.01,2013-08-11 02:09:00,
2013-08-10 22:14:00,63.9,58.3,30.08,WNW,292,0.0,0.0,82,0.00,,,0.00,VWS V14.01,2013-08-11 02:14:00,
2013-08-10 22:19:00,63.6,58.3,30.08,WNW,292,0.0,0.0,83,0.00,,,0.00,VWS V14.01,2013-08-11 02:19:00,
2013-08-10 22:24:00,63.4,58.2,30.08,WNW,292,0.0,0.0,83,0.00,,,0.00,VWS V14.01,2013-08-11 02:24:00,
2013-08-10 22:29:00,63.3,58.7,30.08,WNW,292,0.0,0.0,85,0.00,,,0.00,VWS V14.01,2013-08-11 02:29:00,
2013-08-10 22:34:00,63.1,58.8,30.08,WNW,292,0.0,0.0,86,0.00,,,0.00,VWS V14.01,2013-08-11 02:34:00,
2013-08-10 22:39:00,62.9,58.7,30.08,WNW,292,0.0,0.0,86,0.00,,,0.00,VWS V14.01,2013-08-11 02:39:00,
2013-08-10 22:44:00,62.7,58.8,30.08,WNW,292,0.0,0.0,87,0.00,,,0.00,VWS V14.01,2013-08-11 02:44:00,
2013-08-10 22:49:00,62.4,58.5,30.08,WNW,292,0.0,0.0,87,0.00,,,0.00,VWS V14.01,2013-08-11 02:49:00,
2013-08-10 22:54:00,62.3,58.4,30.08,WNW,292,0.0,0.0,87,0.00,,,0.00,VWS V14.01,2013-08-11 02:54:00,
2013-08-10 22:59:00,62.1,58.2,30.08,WNW,292,0.0,0.0,87,0.00,,,0.00,VWS V14.01,2013-08-11 02:59:00,
2013-08-10 23:04:00,61.9,58.0,30.08,WNW,292,0.0,0.0,87,0.00,,,0.00,VWS V14.01,2013-08-11 03:04:00,
2013-08-10 23:09:00,61.7,58.1,30.08,WNW,292,0.0,0.0,88,0.00,,,0.00,VWS V14.01,2013-08-11 03:09:00,
2013-08-10 23:14:00,61.6,58.3,30.09,WNW,292,0.0,0.0,89,0.00,,,0.00,VWS V14.01,2013-08-11 03:14:00,
2013-08-10 23:19:00,61.6,58.6,30.08,WNW,292,0.0,0.0,90,0.00,,,0.00,VWS V14.01,2013-08-11 03:19:00,
2013-08-10 23:24:00,61.5,58.5,30.09,WNW,292,0.0,0.0,90,0.00,,,0.00,VWS V14.01,2013-08-11 03:24:00,
2013-08-10 23:30:00,61.4,58.8,30.09,WNW,292,0.0,0.0,91,0.00,,,0.00,VWS V14.01,2013-08-11 03:30:00,
2013-08-10 23:35:00,61.4,58.8,30.09,WNW,292,0.0,0.0,91,0.00,,,0.00,VWS V14.01,2013-08-11 03:35:00,
2013-08-10 23:40:00,61.4,58.8,30.09,WNW,292,0.0,0.0,91,0.00,,,0.00,VWS V14.01,2013-08-11 03:40:00,
2013-08-10 23:45:00,61.4,59.1,30.09,WNW,292,0.0,0.0,92,0.00,,,0.00,VWS V14.01,2013-08-11 03:45:00,
2013-08-10 23:50:00,61.4,59.1,30.09,WNW,292,0.0,0.0,92,0.00,,,0.00,VWS V14.01,2013-08-11 03:50:00,
2013-08-10 23:55:00,61.5,59.2,30.09,WNW,292,0.0,0.0,92,0.00,,,0.00,VWS V14.01,2013-08-11 03:55:00,